RH
43 42 37 34 34 35 36 36 36 34 33 32 30 28 27 25 25 26 27 30 33 36
41 38 38 38 39 39 39 37 35 31 28 25 23 21 19 18 17 17 20 25 26 28
40 41 42 44 43 40 35 32 29 26 23 20 19 18 18 18 17 17 19 19 17 20
45 46 46 43 39 34 31 27 24 22 21 21 21 21 20 18 16 16 15 16 19 26
45 45 43 39 34 30 26 25 25 24 22 21 20 19 18 17 17 18 19 23 28 28
46 43 39 35 32 29 28 28 25 23 22 21 21 21 22 22 23 24 27 32 32 29
46 43 39 36 31 30 29 26 25 25 23 23 24 26 25 25 24 25 30 33 32 28
45 44 39 33 33 31 28 27 25 24 25 26 24 21 21 22 23 26 29 27 25 23
45 44 37 33 32 29 27 25 25 24 21 19 21 22 21 24 24 23 22 21 20 22
39 34 33 32 30 28 27 23 19 19 20 19 18 16 16 23 24 23 22 22 23 25
34 34 32 30 28 22 18 19 20 19 17 16 16 16 18 24 24 24 26 30 32 35
35 33 28 22 18 20 21 20 17 17 17 17 16 17 23 27 30 31 32 30 31 40
30 23 19 20 22 23 21 19 18 18 18 18 17 18 26 34 37 35 33 33 39 38
19 20 22 25 25 22 21 20 20 19 18 18 23 25 29 37 37 39 44 45 37 36